Wichita Jabara, KS

11:43 AM CDT on August 21, 2017 (GMT -0500)
Col Jabara

Weather History for KAAO - November, 2013

Change the Weather History Date:

Thursday, November 14, 2013

  Actual Average (KIAB) Record (KIAB)
Temperature  
Mean Temperature 46 °F -  
Max Temperature 55 °F 55 °F 71 °F (1999)
Min Temperature 36 °F 35 °F 18 °F (2014)
Degree Days  
Heating Degree Days 20    
Moisture  
Dew Point 27 °F    
Average Humidity 52    
Maximum Humidity 65    
Minimum Humidity 36    
Precipitation  
Precipitation 0.00 in - - ()
Sea Level Pressure  
Sea Level Pressure 30.03 in    
Wind  
Wind Speed 18 mph (South)    
Max Wind Speed 24 mph    
Max Gust Speed 33 mph    
Visibility 10 miles    
Events      
Averages and records for this station are not official NWS values.
T = Trace of Precipitation, MM = Missing Value Source: NWS Daily Summary

Daily Weather History Graph

Daily Weather History Graph

Search for Another Location

Airport or City:

Trip Planner

Search our weather history database for the weather conditions in past years. The results will help you decide how hot, cold, wet, or windy it might be!

Date:

Astronomy

Nov. 14, 2013 Rise Set
Actual Time 7:08 AM CST 5:18 PM CST
Civil Twilight 6:40 AM CST 5:46 PM CST
Nautical Twilight 6:08 AM CST 6:17 PM CST
Astronomical Twilight 5:37 AM CST 6:48 PM CST
Moon 3:37 PM CST (11/14) 4:07 AM CST (11/14)
Length of Visible Light 11h 05m
Length of Day
10h 09m
Waxing Gibbous, 92% of the Moon is Illuminated
Nov 14
Waxing Gibbous
Nov 17
Full
Nov 25
Last Quarter
Dec 2
New
Dec 9
First Quarter

Hourly Weather History & Observations

Time (CST) Temp. Windchill Dew Point Humidity Pressure Visibility Wind Dir Wind Speed Gust Speed Precip Events Conditions
12:54 AM 39.0 °F 29.6 °F 19.9 °F 46% 30.16 in 10.0 mi SSW 18.4 mph - N/A   Clear
1:54 AM 37.9 °F 27.3 °F 21.0 °F 51% 30.14 in 10.0 mi South 21.9 mph 27.6 mph N/A   Clear
2:54 AM 37.0 °F 27.4 °F 23.0 °F 57% 30.13 in 10.0 mi South 17.3 mph 23.0 mph N/A   Clear
3:54 AM 36.0 °F 26.0 °F 24.1 °F 62% 30.12 in 10.0 mi South 17.3 mph 23.0 mph N/A   Clear
4:54 AM 37.0 °F 26.4 °F 24.1 °F 59% 30.10 in 10.0 mi South 20.7 mph 26.5 mph N/A   Clear
5:54 AM 37.0 °F 26.7 °F 24.1 °F 59% 30.09 in 10.0 mi South 19.6 mph 27.6 mph N/A   Clear
6:54 AM 37.0 °F 27.0 °F 24.1 °F 59% 30.08 in 10.0 mi South 18.4 mph 26.5 mph N/A   Clear
7:54 AM 37.9 °F 27.9 °F 25.0 °F 60% 30.06 in 10.0 mi South 19.6 mph 28.8 mph N/A   Clear
8:54 AM 39.9 °F 29.5 °F 26.1 °F 58% 30.06 in 10.0 mi South 24.2 mph 33.4 mph N/A   Clear
9:54 AM 43.0 °F 34.2 °F 26.1 °F 51% 30.06 in 10.0 mi South 20.7 mph 28.8 mph N/A   Clear
10:54 AM 48.0 °F - 27.0 °F 44% 30.06 in 10.0 mi South 18.4 mph 26.5 mph N/A   Clear
11:54 AM 50.0 °F - 27.0 °F 41% 30.03 in 10.0 mi SSW 19.6 mph 25.3 mph N/A   Clear
12:54 PM 55.0 °F - 28.9 °F 37% 29.99 in 10.0 mi South 19.6 mph 27.6 mph N/A   Clear
2:54 PM 55.9 °F - 28.9 °F 36% 29.94 in 10.0 mi South 19.6 mph 28.8 mph N/A   Partly Cloudy
3:54 PM 52.0 °F - 28.9 °F 41% 29.97 in 10.0 mi SSW 17.3 mph 26.5 mph N/A   Mostly Cloudy
4:54 PM 52.0 °F - 28.9 °F 41% 29.96 in 10.0 mi South 11.5 mph 19.6 mph N/A   Scattered Clouds
5:54 PM 50.0 °F - 28.9 °F 44% 29.96 in 10.0 mi South 9.2 mph - N/A   Partly Cloudy
6:54 PM 46.9 °F - 30.0 °F 52% 29.97 in 10.0 mi South 8.1 mph - N/A   Clear
7:54 PM 44.1 °F 40.1 °F 30.0 °F 58% 29.97 in 10.0 mi South 6.9 mph - N/A   Clear
8:54 PM 44.1 °F 38.6 °F 30.0 °F 58% 29.97 in 10.0 mi South 10.4 mph - N/A   Clear
9:54 PM 45.0 °F 38.2 °F 30.0 °F 56% 29.98 in 10.0 mi South 15.0 mph - N/A   Clear
10:54 PM 43.0 °F 36.0 °F 30.0 °F 60% 29.98 in 10.0 mi South 13.8 mph - N/A   Clear
11:54 PM 42.1 °F 36.1 °F 30.9 °F 65% 29.96 in 10.0 mi South 10.4 mph - N/A   Clear